{"data":{"norad_id":66482,"intl_designator":"2025-262AC","name":"STARLINK-35648","alt_names":[],"object_type":"PAYLOAD","status":"ACTIVE","operator":null,"country":"US","launch_date":"2025-11-15","launch_site_code":"AFETR","launch_vehicle":null,"mission":null,"orbit_class":"UNKNOWN","rcs_meters":null,"size_class":null,"mass_kg":null,"dimensions":null,"purposes":["comms"],"wikipedia_slug":null,"has_3d_model":false,"image_url":null,"decayed_at":null,"tle_current":{"epoch":"2026-05-24T16:57:50.106816Z","epoch_age_seconds":100685,"freshness":"FRESH","line1":"1 66482U 25262AC  26144.70682994  .00020170  00000+0  73950-3 0  9991","line2":"2 66482  42.9995 226.7365 0001806 270.7894  89.2751 15.27623241 30377","mean_motion":15.27623241,"eccentricity":0.0001806,"inclination_deg":42.9995,"raan_deg":226.7365,"arg_perigee_deg":270.7894,"mean_anomaly_deg":89.2751,"bstar":0.0007395,"rev_number":3037,"period_min":94.264080393105,"perigee_km":481.68051315843,"apogee_km":484.15872680957,"semimajor_km":6861.056619984,"source":"CELESTRAK","updated_at":"2026-05-25T13:38:21.240721Z"}}}